Wind_Speed
2 5 7 10 11 11 13 15 16 17 14 14 15 14 14 18 18 17 18 20 20 21
6 8 10 11 11 12 14 14 14 13 13 14 15 16 17 18 19 19 20 17 19 21
11 12 11 11 12 13 13 13 12 11 11 12 13 13 14 16 18 21 21 24 22 17
9 8 10 11 12 14 14 15 15 14 12 12 14 17 20 21 23 26 27 27 20 19
8 8 9 11 14 13 15 14 14 15 14 12 14 17 21 25 30 30 28 20 13 20
8 9 10 8 12 16 12 15 15 14 13 15 17 21 22 24 27 23 16 14 17 18
9 9 10 11 13 15 15 15 20 13 13 16 21 24 26 27 29 27 20 19 20 23
7 11 11 12 14 15 17 17 21 17 14 19 20 25 28 28 28 30 26 23 24 24
8 10 10 10 14 15 14 17 22 20 18 20 21 24 26 29 26 28 28 25 30 26
7 9 9 12 11 10 16 19 18 16 17 20 24 24 26 25 26 29 28 25 31 31
8 9 12 12 12 16 18 16 13 17 20 21 23 26 21 19 26 31 31 32 31 24
10 9 12 14 13 17 18 14 17 22 28 29 25 17 15 22 30 32 33 31 26 21
7 11 13 11 15 14 13 19 22 18 22 14 17 20 23 28 31 31 29 29 26 21
9 13 11 13 14 13 17 16 10 23 16 18 23 25 27 29 29 28 27 29 30 26
Wind_Direction
327 318 317 321 325 320 318 316 309 310 325 337 322 316 314 330 323 325 324 317 321 323
359 345 338 333 326 330 333 332 339 347 348 351 355 344 322 319 329 327 316 321 318 318
340 337 336 330 334 335 341 348 348 349 345 346 343 335 319 318 312 309 308 311 309 313
330 325 330 335 340 345 347 347 346 346 337 326 324 320 322 320 313 309 307 311 305 311
333 338 345 341 336 340 341 348 0 2 8 344 333 336 331 323 319 318 318 321 316 324
339 339 325 328 328 338 342 358 354 355 347 332 334 338 349 6 5 357 355 355 331 331
328 334 347 335 338 348 353 345 347 341 332 330 337 344 353 358 2 8 2 349 337 333
342 346 346 345 349 342 338 335 338 340 325 327 332 338 345 345 352 348 354 355 340 327
340 338 349 340 332 340 332 329 330 332 328 320 328 333 342 337 337 341 341 334 337 332
317 325 323 322 333 320 321 322 332 340 335 323 329 335 332 327 330 333 340 325 327 329
292 306 314 320 315 320 330 337 350 347 346 333 336 330 316 319 325 332 340 336 331 334
297 318 326 335 332 327 341 356 346 340 333 325 319 319 326 326 333 343 343 345 344 337
346 324 331 332 331 338 353 347 347 354 349 2 352 346 337 340 342 340 345 352 5 2
324 325 329 323 344 356 352 349 349 344 356 343 342 337 338 341 339 344 348 353 356 353
Height
1539 1537 1535 1534 1533 1532 1531 1530 1528 1526 1523 1521 1519 1518 1516 1514 1511 1509 1506 1502 1500 1497
1536 1534 1534 1532 1531 1530 1529 1527 1525 1523 1521 1519 1517 1516 1513 1511 1507 1505 1501 1498 1496 1493
1534 1533 1533 1531 1530 1529 1526 1525 1523 1521 1519 1517 1516 1513 1510 1507 1503 1500 1498 1495 1491 1488
1534 1533 1532 1531 1529 1527 1525 1523 1521 1518 1516 1515 1513 1511 1508 1504 1500 1496 1492 1489 1486 1483
1533 1532 1531 1530 1528 1526 1524 1522 1520 1518 1516 1513 1511 1509 1505 1501 1496 1490 1485 1482 1481 1480
1532 1532 1531 1529 1527 1526 1524 1522 1519 1517 1515 1512 1510 1507 1502 1498 1491 1487 1484 1481 1479 1476
1533 1532 1530 1529 1527 1525 1522 1520 1518 1516 1514 1511 1507 1504 1500 1496 1491 1487 1483 1480 1477 1473
1532 1530 1529 1527 1526 1524 1522 1519 1517 1514 1511 1508 1505 1501 1497 1493 1489 1485 1480 1477 1474 1470
1531 1530 1529 1527 1525 1523 1520 1518 1515 1511 1508 1504 1501 1499 1495 1491 1486 1482 1477 1472 1469 1465
1531 1530 1528 1526 1523 1521 1519 1515 1512 1508 1505 1501 1498 1495 1492 1488 1484 1479 1474 1469 1464 1459
1529 1528 1526 1524 1522 1519 1516 1512 1509 1506 1502 1499 1496 1493 1489 1485 1481 1476 1470 1464 1458 1453
1527 1525 1524 1522 1520 1517 1514 1511 1507 1504 1499 1496 1493 1489 1486 1483 1477 1470 1465 1459 1453 1449
1525 1524 1522 1520 1518 1516 1513 1509 1506 1502 1497 1492 1490 1487 1483 1479 1472 1466 1461 1456 1451 1446
1524 1522 1520 1518 1516 1513 1510 1507 1505 1500 1497 1493 1488 1484 1480 1475 1469 1463 1458 1453 1448 1443